星链-3779 (STARLINK-3779 )

导读 | 豆包AI

STARLINK-3779是美国太空探索技术公司SpaceX星链(Starlink)星座的成员卫星,于2022年4月21日发射入轨。星链项目旨在构建全球卫星互联网星座,为全球偏远地区、海洋航空等场景提供高速宽带网络服务。作为低轨通信卫星,STARLINK-3779运行在近地轨道,依托星链组网实现全球互联网覆盖,支撑全球泛在互联的通信需求,是星链大规模组网过程中的重要组成部分。

Basic Information
目录编号:
52281
目录名称:
STARLINK-3779
国际标识:
2022-041W
轨道中心:
EARTH
卫星名称:
星链-3779
卫星全名:
星链-3779 (STARLINK-3779 )
卫星状态:
在轨 (已飞行1424 天)
发射日期:
2022-04-21 UTC
国别 :
美国 (US)
星等 :
--
Orbit Information
数据来源 国际轨道数据 AOE轨道数据
星历时间 2026-03-14T15:25:16+0800
17小时前
查看轨道信息
2026-03-13T05:00:00+0800
2天前
查看轨道信息
半长轴 6917.886km 6917.862km
偏心率 0.0001295 0.0001755
轨道倾角 53.216° 53.217°
近地点辐角 88.650° 86.885°
升交点赤经 88.381° 94.821°
平近点角 271.464° 38.648°
近地点 538.853km 538.51km
远地点 540.645km 540.94km
周期 95.438分钟 95.437分钟
每日圈数 15.088384 15.088462
Detailed Information
固有亮度:
5
最大亮度:
2.5
卫星平台:
Starlink v1.5
覆盖范围:
全球
运营商:
太空探索技术公司
运营商所在国:
美国
制造商(研发单位):
太空探索技术公司
制造商所在国:
美国
使用方式:
暂无
Satellite Introduction
星链(Starlink)计划是由太空探索技术公司(SpaceX)提出的一个巨型低轨卫星互联网星座项目,计划在2019年至2024年间在太空搭建由约1.2万颗卫星组成的“星链”网络,其中1584颗将部署在地球上空550千米处的近地轨道,并从2020年开始工作。该卫星仍在工作。
2D Orbit Map
3D Orbit Map
Orbit Altitude Analysis Chart
Orbit Inclination Analysis Chart
Orbit Comprehensive Analysis Chart
View Comprehensive Chart